Location: Newark
(45.9456°N, 15.4064°E)
Time: 23:52:12
(UTC+00:00)

Tiros 1 - All Passes

Search period start: 18 January 2020 00:00
Search period end: 28 January 2020 00:00
Orbit: 630 x 664 km, 48.4° (Epoch: 18 January)

Date Brightness Start Highest point End Pass type
(mag) Time Alt. Az. Time Alt. Az. Time Alt. Az.
18 Jan - 13:05:52 10° S 13:08:55 17° SE 13:11:59 10° E daylight
18 Jan - 14:45:47 10° SW 14:50:28 62° SSE 14:55:13 10° ENE daylight
18 Jan - 16:27:59 10° W 16:32:45 68° N 16:37:33 10° ENE visible
18 Jan - 18:10:26 10° WNW 18:15:15 77° NNE 18:20:05 10° E visible
18 Jan - 19:52:47 10° WNW 19:57:21 44° SSW 20:01:55 10° SE visible
18 Jan - 21:37:50 10° WSW 21:38:39 10° SW 21:39:28 10° SW night (unlit)
19 Jan - 13:30:22 10° SSW 13:34:34 33° SE 13:38:51 10° E daylight
19 Jan - 15:11:44 10° WSW 15:16:30 87° NNW 15:21:19 10° ENE daylight
19 Jan - 16:54:13 10° W 16:58:58 65° N 17:03:46 10° E visible
19 Jan - 18:36:33 10° WNW 18:41:21 77° SSW 18:46:10 10° ESE visible
19 Jan - 20:19:16 10° W 20:23:06 24° SW 20:26:55 10° SSE visible
20 Jan - 12:16:07 10° S 12:18:55 16° SE 12:21:45 10° E daylight
20 Jan - 13:55:47 10° SW 14:00:25 59° SSE 14:05:08 10° ENE daylight
20 Jan - 15:37:55 10° W 15:42:40 69° N 15:47:28 10° ENE daylight
20 Jan - 17:20:23 10° WNW 17:25:11 75° NNE 17:30:00 10° E visible
20 Jan - 19:02:42 10° WNW 19:07:18 46° SSW 19:11:55 10° SE visible
20 Jan - 20:47:07 10° WSW 20:48:39 11° SW 20:50:12 10° SSW night (unlit)
21 Jan - 12:40:26 10° SSW 12:44:33 31° SE 12:48:44 10° E daylight
21 Jan - 14:21:41 10° WSW 14:26:26 90° WNW 14:31:15 10° ENE daylight
21 Jan - 16:04:09 10° W 16:08:53 64° N 16:13:40 10° E daylight
21 Jan - 17:46:30 10° WNW 17:51:17 80° SSW 17:56:07 10° ESE visible
21 Jan - 19:29:08 10° W 19:33:05 25° SW 19:37:00 10° SSE visible
22 Jan - 11:26:23 10° SSE 11:28:55 15° SE 11:31:29 10° E daylight
22 Jan - 13:05:47 10° SW 13:10:23 55° SSE 13:15:03 10° ENE daylight
22 Jan - 14:47:51 10° W 14:52:36 70° N 14:57:23 10° ENE daylight
22 Jan - 16:30:19 10° WNW 16:35:06 73° N 16:39:55 10° E visible
22 Jan - 18:12:38 10° WNW 18:17:15 49° SSW 18:21:54 10° SE visible
22 Jan - 19:56:40 10° WSW 19:58:39 12° SW 20:00:40 10° SSW visible
23 Jan - 11:50:31 10° SSW 11:54:32 29° SE 11:58:36 10° E daylight
23 Jan - 13:31:39 10° WSW 13:36:23 87° SSE 13:41:11 10° ENE daylight
23 Jan - 15:14:05 10° W 15:18:49 64° N 15:23:35 10° E daylight
23 Jan - 16:56:26 10° WNW 17:01:14 83° SSW 17:06:02 10° ESE visible
23 Jan - 18:39:02 10° W 18:43:03 27° SW 18:47:05 10° SSE visible
24 Jan - 10:36:43 10° SSE 10:38:56 13° SE 10:41:10 10° ESE daylight
24 Jan - 12:15:47 10° SW 12:20:20 52° SSE 12:24:58 10° ENE daylight
24 Jan - 13:57:48 10° W 14:02:31 71° N 14:07:18 10° ENE daylight
24 Jan - 15:40:16 10° WNW 15:45:01 71° N 15:49:50 10° E daylight
24 Jan - 17:22:34 10° WNW 17:27:13 52° SSW 17:31:53 10° SE visible
24 Jan - 19:06:19 10° WSW 19:08:39 14° SW 19:11:00 10° SSW visible
25 Jan - 11:00:37 10° SSW 11:04:31 27° SE 11:08:29 10° E daylight
25 Jan - 12:41:37 10° WSW 12:46:19 84° SSE 12:51:06 10° ENE daylight
25 Jan - 14:24:01 10° W 14:28:44 64° N 14:33:30 10° E daylight
25 Jan - 16:06:23 10° WNW 16:11:09 87° SSW 16:15:58 10° ESE daylight
25 Jan - 17:48:55 10° W 17:53:02 29° SW 17:57:09 10° SSE visible
26 Jan - 09:47:07 10° SSE 09:48:56 12° SE 09:50:47 10° ESE daylight
26 Jan - 11:25:48 10° SW 11:30:18 49° SSE 11:34:53 10° ENE daylight
26 Jan - 13:07:44 10° W 13:12:27 72° NNW 13:17:13 10° ENE daylight
26 Jan - 14:50:13 10° WNW 14:54:57 70° N 14:59:44 10° E daylight
26 Jan - 16:32:30 10° WNW 16:37:10 55° SSW 16:41:51 10° SE visible
26 Jan - 18:16:01 10° W 18:18:39 15° SW 18:21:17 10° SSW visible
27 Jan - 10:10:43 10° SSW 10:14:31 25° SE 10:18:20 10° E daylight
27 Jan - 11:51:35 10° WSW 11:56:16 81° SSE 12:01:01 10° ENE daylight
27 Jan - 13:33:58 10° W 13:38:40 64° N 13:43:24 10° E daylight
27 Jan - 15:16:19 10° WNW 15:21:07 90° SSE 15:25:54 10° ESE daylight
27 Jan - 16:58:49 10° W 17:03:00 31° SW 17:07:12 10° SSE visible
